JST428 YSSY-YMML

Flight info

Callsign JST428
Flight time N/A
Altitude 32000
Route GROOK1/16R WOL H65 LEECE Q29 ML
Aircraft A320/M-SDE3FGHIRWY/LB1

Departure

Time N/A
Airport Sydney Kingsford Smith International Airport (YSSY)

Arrival

Time 2026-05-05 09:56
Airport Melbourne Airport (YMML)
Time Latitude Longitude Altitude Speed Heading
2026-05-05 09:27 -36.55089 147.16331 32255 ft 368 kts 149°
2026-05-05 09:27 -36.57367 147.17686 32257 ft 362 kts 169°
2026-05-05 09:28 -36.59837 147.17966 32257 ft 356 kts 189°
2026-05-05 09:28 -36.62204 147.17180 32253 ft 352 kts 208°
2026-05-05 09:28 -36.64189 147.15447 32262 ft 349 kts 227°
2026-05-05 09:29 -36.67153 147.10640 32264 ft 350 kts 236°
2026-05-05 09:29 -36.69865 147.05591 32261 ft 350 kts 236°
2026-05-05 09:30 -36.72602 147.00448 32260 ft 369 kts 236°
2026-05-05 09:30 -36.74047 146.97734 32260 ft 382 kts 236°
2026-05-05 09:30 -36.75550 146.94926 32258 ft 395 kts 236°
2026-05-05 09:30 -36.77103 146.92036 32257 ft 406 kts 236°
2026-05-05 09:31 -36.78667 146.89133 32220 ft 397 kts 236°
2026-05-05 09:31 -36.80190 146.86306 31965 ft 390 kts 236°
2026-05-05 09:31 -36.81697 146.83511 31594 ft 385 kts 236°
2026-05-05 09:31 -36.83190 146.80745 31176 ft 383 kts 236°
2026-05-05 09:32 -36.84673 146.77996 30765 ft 381 kts 235°
2026-05-05 09:32 -36.86127 146.75293 30379 ft 379 kts 235°
2026-05-05 09:32 -36.87589 146.72565 29940 ft 377 kts 235°
2026-05-05 09:32 -36.89042 146.69851 29518 ft 375 kts 235°
2026-05-05 09:33 -36.90488 146.67156 29106 ft 373 kts 235°
2026-05-05 09:33 -36.91926 146.64476 28708 ft 370 kts 235°
2026-05-05 09:33 -36.93360 146.61801 28328 ft 368 kts 235°
2026-05-05 09:33 -36.94778 146.59153 27960 ft 366 kts 235°
2026-05-05 09:34 -36.96191 146.56512 27579 ft 364 kts 235°
2026-05-05 09:34 -36.97590 146.53890 27196 ft 362 kts 235°
2026-05-05 09:34 -36.98983 146.51269 26811 ft 360 kts 235°
2026-05-05 09:34 -37.00362 146.48673 26425 ft 358 kts 235°
2026-05-05 09:35 -37.01736 146.46091 26048 ft 356 kts 235°
2026-05-05 09:35 -37.04466 146.40954 25272 ft 352 kts 235°
2026-05-05 09:35 -37.05819 146.38410 24897 ft 350 kts 235°
2026-05-05 09:36 -37.07162 146.35883 24538 ft 348 kts 235°
2026-05-05 09:36 -37.08497 146.33370 24168 ft 345 kts 235°
2026-05-05 09:36 -37.09807 146.30903 23784 ft 344 kts 235°
2026-05-05 09:36 -37.11124 146.28416 23338 ft 342 kts 235°
2026-05-05 09:37 -37.12434 146.25933 22906 ft 340 kts 236°
2026-05-05 09:37 -37.13735 146.23467 22489 ft 338 kts 236°
2026-05-05 09:37 -37.15030 146.21015 22080 ft 336 kts 236°
2026-05-05 09:37 -37.16320 146.18575 21678 ft 334 kts 236°
2026-05-05 09:38 -37.17187 146.16938 21403 ft 333 kts 236°
2026-05-05 09:38 -37.18876 146.13746 20890 ft 330 kts 236°
2026-05-05 09:38 -37.19714 146.12157 20645 ft 329 kts 236°
2026-05-05 09:38 -37.20972 146.09769 20273 ft 327 kts 236°
2026-05-05 09:39 -37.22221 146.07393 19900 ft 325 kts 236°
2026-05-05 09:39 -37.23462 146.05029 19526 ft 323 kts 236°
2026-05-05 09:39 -37.24700 146.02680 19160 ft 322 kts 236°
2026-05-05 09:39 -37.25928 146.00340 18802 ft 320 kts 237°
2026-05-05 09:40 -37.27151 145.98006 18426 ft 319 kts 237°
2026-05-05 09:40 -37.28370 145.95688 18027 ft 317 kts 236°
2026-05-05 09:40 -37.29583 145.93383 17642 ft 315 kts 236°
2026-05-05 09:40 -37.30780 145.91097 17274 ft 313 kts 237°
2026-05-05 09:41 -37.31969 145.88820 16907 ft 310 kts 236°
2026-05-05 09:41 -37.33152 145.86562 16552 ft 308 kts 236°
2026-05-05 09:41 -37.34328 145.84316 16198 ft 306 kts 236°
2026-05-05 09:41 -37.35495 145.82082 15832 ft 305 kts 236°
2026-05-05 09:42 -37.36655 145.79866 15489 ft 303 kts 236°
2026-05-05 09:42 -37.37811 145.77661 15145 ft 301 kts 236°
2026-05-05 09:42 -37.38948 145.75499 14801 ft 300 kts 236°
2026-05-05 09:42 -37.40095 145.73316 14465 ft 299 kts 236°
2026-05-05 09:43 -37.41233 145.71139 14147 ft 297 kts 236°
2026-05-05 09:43 -37.42364 145.68972 13788 ft 295 kts 236°
2026-05-05 09:43 -37.43486 145.66818 13417 ft 294 kts 236°
2026-05-05 09:43 -37.44601 145.64677 13051 ft 292 kts 236°
2026-05-05 09:44 -37.45715 145.62541 12696 ft 290 kts 236°
2026-05-05 09:44 -37.46826 145.60428 12346 ft 289 kts 236°
2026-05-05 09:44 -37.47933 145.58327 12006 ft 287 kts 235°
2026-05-05 09:44 -37.49033 145.56233 11658 ft 286 kts 236°
2026-05-05 09:45 -37.50126 145.54149 11306 ft 285 kts 236°
2026-05-05 09:45 -37.51212 145.52070 10983 ft 283 kts 236°
2026-05-05 09:45 -37.52290 145.50007 10665 ft 282 kts 236°
2026-05-05 09:45 -37.53361 145.47954 10346 ft 280 kts 236°
2026-05-05 09:46 -37.54441 145.45893 9826 ft 285 kts 236°
2026-05-05 09:46 -37.55525 145.43826 9595 ft 279 kts 236°
2026-05-05 09:46 -37.56594 145.41785 9240 ft 278 kts 236°
2026-05-05 09:46 -37.57645 145.39779 8883 ft 277 kts 236°
2026-05-05 09:47 -37.58705 145.37750 8535 ft 276 kts 236°
2026-05-05 09:47 -37.59755 145.35733 8177 ft 275 kts 237°
2026-05-05 09:47 -37.60803 145.33717 7829 ft 274 kts 237°
2026-05-05 09:47 -37.61847 145.31709 7489 ft 273 kts 237°
2026-05-05 09:48 -37.62875 145.29738 7349 ft 263 kts 237°
2026-05-05 09:48 -37.63853 145.27862 7071 ft 251 kts 237°
2026-05-05 09:48 -37.64640 145.25919 6841 ft 245 kts 252°
2026-05-05 09:48 -37.64961 145.23831 6662 ft 241 kts 263°
2026-05-05 09:49 -37.65168 145.21738 6342 ft 240 kts 262°
2026-05-05 09:49 -37.65385 145.19650 6029 ft 240 kts 262°
2026-05-05 09:49 -37.65604 145.17574 5733 ft 237 kts 262°
2026-05-05 09:49 -37.65819 145.15524 5259 ft 235 kts 262°
2026-05-05 09:50 -37.66033 145.13491 4837 ft 230 kts 262°
2026-05-05 09:50 -37.66228 145.11596 4867 ft 208 kts 262°
2026-05-05 09:50 -37.66410 145.09808 4549 ft 204 kts 262°
2026-05-05 09:50 -37.66587 145.08050 4083 ft 200 kts 262°
2026-05-05 09:51 -37.66762 145.06334 3631 ft 191 kts 262°
2026-05-05 09:51 -37.66927 145.04722 3423 ft 178 kts 262°
2026-05-05 09:51 -37.67078 145.03255 3301 ft 162 kts 262°
2026-05-05 09:51 -37.67124 145.01882 3101 ft 149 kts 270°
2026-05-05 09:52 -37.67095 145.00634 2931 ft 142 kts 272°
2026-05-05 09:52 -37.67044 144.99407 2732 ft 139 kts 272°
2026-05-05 09:52 -37.66984 144.98191 2541 ft 138 kts 273°
2026-05-05 09:52 -37.66920 144.96977 2361 ft 138 kts 273°
2026-05-05 09:53 -37.66854 144.95779 2170 ft 138 kts 274°
2026-05-05 09:53 -37.66785 144.94566 1982 ft 138 kts 274°
2026-05-05 09:53 -37.66717 144.93358 1796 ft 138 kts 274°
2026-05-05 09:53 -37.66648 144.92151 1604 ft 138 kts 274°
2026-05-05 09:54 -37.66579 144.90941 1410 ft 138 kts 275°
2026-05-05 09:54 -37.66509 144.89729 1216 ft 138 kts 275°
2026-05-05 09:54 -37.66439 144.88521 1031 ft 138 kts 275°
2026-05-05 09:54 -37.66370 144.87313 846 ft 138 kts 276°
2026-05-05 09:55 -37.66300 144.86105 666 ft 138 kts 276°
2026-05-05 09:55 -37.66231 144.84905 484 ft 137 kts 276°
2026-05-05 09:55 -37.66154 144.83721 394 ft 122 kts 276°
2026-05-05 09:55 -37.66113 144.82984 413 ft 71 kts 274°
2026-05-05 09:56 -37.66093 144.82545 421 ft 42 kts 274°
2026-05-05 09:56 -37.66085 144.82340 426 ft 19 kts 260°
2026-05-05 09:56 -37.66178 144.82231 428 ft 20 kts 193°
2026-05-05 09:56 -37.66323 144.82233 421 ft 22 kts 157°
2026-05-05 09:57 -37.66401 144.82405 421 ft 26 kts 99°
2026-05-05 09:57 -37.66435 144.82653 412 ft 31 kts 99°
2026-05-05 09:57 -37.66454 144.82943 408 ft 35 kts 94°
2026-05-05 09:57 -37.66471 144.83271 399 ft 40 kts 94°
2026-05-05 09:58 -37.66492 144.83634 393 ft 42 kts 94°
2026-05-05 09:58 -37.66507 144.83883 388 ft 27 kts 94°
2026-05-05 09:58 -37.66526 144.84083 378 ft 20 kts 109°
2026-05-05 09:58 -37.66653 144.84170 376 ft 23 kts 170°
2026-05-05 09:59 -37.66820 144.84199 375 ft 26 kts 171°
2026-05-05 09:59 -37.67009 144.84235 371 ft 29 kts 171°
2026-05-05 09:59 -37.67224 144.84274 367 ft 33 kts 172°
2026-05-05 09:59 -37.67421 144.84312 362 ft 20 kts 171°
2026-05-05 10:00 -37.67523 144.84332 363 ft 13 kts 159°
2026-05-05 10:00 -37.67514 144.84372 362 ft 7 kts 13°
2026-05-05 10:00 -37.67467 144.84477 358 ft 11 kts 85°
2026-05-05 10:00 -37.67452 144.84588 363 ft 15 kts 81°
2026-05-05 10:01 -37.67440 144.84689 358 ft 9 kts 82°
2026-05-05 10:01 -37.67476 144.84734 355 ft 10 kts 169°
2026-05-05 10:01 -37.67541 144.84746 356 ft 0 kts 172°